�������l�o���
Date,Time,MP-1(��Sv/h),MP-2(��Sv/h),MP-3(��Sv/h),MP-4(��Sv/h),MP-5(��Sv/h),MP-6(��Sv/h),MP-7(��Sv/h),MP-8(��Sv/h),����,����(m/s),���J
2023/04/28,00:00,0.554,0.807,0.491,1.006,0.713,0.321,0.571,0.540,��,1.5,��
2023/04/28,00:10,0.554,0.806,0.492,1.005,0.711,0.320,0.572,0.539,��쐼,1.7,��
2023/04/28,00:20,0.554,0.807,0.491,1.003,0.712,0.320,0.573,0.542,��,2.5,��
2023/04/28,00:30,0.553,0.806,0.491,1.003,0.713,0.319,0.573,0.541,��,2.3,��
2023/04/28,00:40,0.554,0.807,0.490,1.006,0.710,0.318,0.573,0.541,��,2.0,��
2023/04/28,00:50,0.553,0.806,0.489,1.003,0.711,0.321,0.571,0.540,��쐼,2.2,��
2023/04/28,01:00,0.553,0.808,0.491,1.005,0.711,0.319,0.571,0.539,��,2.6,��
2023/04/28,01:10,0.554,0.808,0.491,1.005,0.711,0.321,0.573,0.540,��쓌,2.2,��
2023/04/28,01:20,0.553,0.808,0.490,1.004,0.710,0.320,0.573,0.541,��쓌,2.3,��
2023/04/28,01:30,0.552,0.809,0.491,1.006,0.710,0.320,0.571,0.541,�쓌,2.3,��
2023/04/28,01:40,0.553,0.806,0.489,1.006,0.712,0.321,0.574,0.540,�쓌,1.5,��
2023/04/28,01:50,0.555,0.807,0.490,1.003,0.711,0.321,0.572,0.540,��쓌,2.3,��
2023/04/28,02:00,0.552,0.810,0.490,1.005,0.712,0.321,0.572,0.538,��,4.3,��
2023/04/28,02:10,0.553,0.809,0.491,1.005,0.711,0.322,0.574,0.540,��,4.4,��
2023/04/28,02:20,0.554,0.809,0.491,1.005,0.713,0.320,0.573,0.540,��쓌,2.0,��
2023/04/28,02:30,0.553,0.806,0.491,1.004,0.712,0.321,0.573,0.540,��쓌,3.4,��
2023/04/28,02:40,0.555,0.807,0.490,1.005,0.712,0.321,0.572,0.541,��쓌,3.9,��
2023/04/28,02:50,0.551,0.809,0.489,1.007,0.711,0.320,0.573,0.540,��쓌,4.4,��
2023/04/28,03:00,0.555,0.810,0.492,1.005,0.711,0.321,0.574,0.541,��쓌,6.2,��
2023/04/28,03:10,0.554,0.807,0.490,1.004,0.711,0.320,0.574,0.541,��,5.6,��
2023/04/28,03:20,0.554,0.807,0.491,1.006,0.710,0.320,0.574,0.541,��,5.7,��
2023/04/28,03:30,0.554,0.808,0.492,1.004,0.712,0.321,0.573,0.541,��,5.4,��
2023/04/28,03:40,0.555,0.810,0.490,1.004,0.711,0.320,0.573,0.541,��,5.2,��
2023/04/28,03:50,0.554,0.808,0.492,1.003,0.711,0.319,0.571,0.540,��,5.4,��
2023/04/28,04:00,0.554,0.807,0.492,1.005,0.711,0.320,0.574,0.541,��쐼,4.6,��
2023/04/28,04:10,0.554,0.806,0.490,1.005,0.712,0.320,0.573,0.542,��쐼,4.7,��
2023/04/28,04:20,0.552,0.807,0.489,1.004,0.712,0.320,0.572,0.541,��쐼,4.7,��
2023/04/28,04:30,0.552,0.809,0.491,1.005,0.709,0.320,0.572,0.541,�쐼,4.2,�L
2023/04/28,04:40,0.554,0.809,0.491,1.006,0.712,0.320,0.573,0.540,��쐼,4.0,��
2023/04/28,04:50,0.553,0.806,0.491,1.006,0.712,0.320,0.573,0.540,��쐼,3.3,��
2023/04/28,05:00,0.553,0.808,0.490,1.004,0.711,0.320,0.572,0.541,��쐼,2.6,��
2023/04/28,05:10,0.553,0.810,0.491,1.006,0.710,0.321,0.574,0.540,��쐼,2.3,��
2023/04/28,05:20,0.553,0.806,0.492,1.004,0.710,0.320,0.572,0.539,��쐼,2.6,��
2023/04/28,05:30,0.553,0.807,0.490,1.005,0.712,0.320,0.573,0.540,��,3.2,��
2023/04/28,05:40,0.554,0.807,0.490,1.004,0.712,0.320,0.573,0.540,��,3.3,��
2023/04/28,05:50,0.553,0.807,0.490,1.004,0.711,0.321,0.573,0.538,��,3.8,��
2023/04/28,06:00,0.554,0.807,0.491,1.006,0.711,0.321,0.572,0.541,��,4.0,��
2023/04/28,06:10,0.555,0.806,0.491,1.007,0.711,0.320,0.574,0.540,��,3.3,��
2023/04/28,06:20,0.554,0.808,0.491,1.004,0.711,0.320,0.574,0.539,�쓌,1.7,��
2023/04/28,06:30,0.553,0.808,0.493,1.005,0.710,0.321,0.574,0.542,���쓌,1.2,��
2023/04/28,06:40,0.555,0.809,0.491,1.005,0.712,0.321,0.574,0.540,-,CALM,��
2023/04/28,06:50,0.554,0.809,0.491,1.004,0.712,0.322,0.574,0.541,-,CALM,��
2023/04/28,07:00,0.556,0.810,0.492,1.004,0.711,0.320,0.574,0.543,-,CALM,��
2023/04/28,07:10,0.554,0.808,0.492,1.007,0.713,0.320,0.574,0.541,�쓌,0.6,��
2023/04/28,07:20,0.554,0.810,0.490,1.007,0.712,0.320,0.574,0.541,�k,0.9,��
2023/04/28,07:30,0.555,0.810,0.492,1.005,0.713,0.318,0.575,0.541,�k��,1.1,��
2023/04/28,07:40,0.555,0.809,0.491,1.005,0.710,0.319,0.573,0.542,-,CALM,��
2023/04/28,07:50,0.555,0.808,0.492,1.007,0.711,0.319,0.575,0.542,�쓌,0.9,��
2023/04/28,08:00,0.554,0.808,0.492,1.005,0.712,0.319,0.573,0.543,�쓌,1.2,��
2023/04/28,08:10,0.554,0.808,0.490,1.007,0.711,0.320,0.571,0.542,�쓌,2.6,��
2023/04/28,08:20,0.555,0.807,0.492,1.005,0.713,0.319,0.574,0.541,�쓌,2.0,��
2023/04/28,08:30,0.554,0.806,0.491,1.006,0.710,0.318,0.573,0.540,�쓌,1.7,��
2023/04/28,08:40,0.552,0.808,0.493,1.006,0.710,0.318,0.572,0.541,-,CALM,��
2023/04/28,08:50,0.553,0.808,0.489,1.007,0.711,0.317,0.572,0.539,��,0.9,��
2023/04/28,09:00,0.554,0.807,0.490,1.008,0.711,0.319,0.572,0.539,�쓌,1.5,��
2023/04/28,09:10,0.554,0.808,0.491,1.007,0.710,0.319,0.573,0.540,��,1.7,��
2023/04/28,09:20,0.554,0.807,0.491,1.007,0.710,0.319,0.572,0.540,���k��,0.6,��
2023/04/28,09:30,0.555,0.809,0.492,1.008,0.709,0.318,0.574,0.538,���k��,2.6,��
2023/04/28,09:40,0.555,0.807,0.490,1.006,0.712,0.321,0.574,0.540,���k��,5.4,��
2023/04/28,09:50,0.556,0.810,0.492,1.009,0.710,0.319,0.573,0.538,���k��,7.7,��
2023/04/28,10:00,0.556,0.809,0.490,1.009,0.712,0.318,0.574,0.540,��,5.6,��
2023/04/28,10:10,0.555,0.809,0.490,1.009,0.713,0.318,0.573,0.540,��,5.5,��
2023/04/28,10:20,0.556,0.810,0.491,1.009,0.715,0.319,0.573,0.540,��,3.7,��
2023/04/28,10:30,0.558,0.812,0.491,1.008,0.715,0.322,0.574,0.541,��,5.3,��
2023/04/28,10:40,0.557,0.811,0.493,1.008,0.716,0.322,0.574,0.542,���쐼,5.5,��
2023/04/28,10:50,0.558,0.811,0.492,1.008,0.714,0.322,0.574,0.541,�쐼,5.8,��
2023/04/28,11:00,0.559,0.813,0.494,1.010,0.715,0.322,0.574,0.541,�쐼,2.5,��
2023/04/28,11:10,0.558,0.811,0.494,1.009,0.715,0.323,0.571,0.540,��쓌,5.6,��
2023/04/28,11:20,0.556,0.813,0.492,1.008,0.715,0.321,0.573,0.541,��쓌,8.9,��
2023/04/28,11:30,0.558,0.813,0.493,1.009,0.715,0.322,0.575,0.541,��,8.4,��
2023/04/28,11:40,0.556,0.814,0.493,1.006,0.716,0.323,0.573,0.541,��,8.6,��
2023/04/28,11:50,0.558,0.812,0.494,1.009,0.716,0.323,0.573,0.541,��쓌,10.3,��
2023/04/28,12:00,0.559,0.815,0.494,1.010,0.717,0.321,0.574,0.542,��,11.6,��
2023/04/28,12:10,0.558,0.813,0.494,1.010,0.717,0.321,0.573,0.541,��쓌,13.3,��
2023/04/28,12:20,0.559,0.813,0.494,1.007,0.717,0.322,0.574,0.540,��,13.5,��
2023/04/28,12:30,0.560,0.814,0.495,1.009,0.718,0.322,0.574,0.542,��쓌,12.2,��
2023/04/28,12:40,0.559,0.816,0.494,1.009,0.716,0.322,0.572,0.542,��쓌,11.1,��
2023/04/28,12:50,0.558,0.815,0.495,1.007,0.716,0.323,0.574,0.542,��쓌,11.3,��
2023/04/28,13:00,0.559,0.817,0.494,1.007,0.718,0.323,0.573,0.543,��쓌,12.7,��
2023/04/28,13:10,0.558,0.815,0.491,1.009,0.719,0.322,0.573,0.541,��쓌,13.8,��
2023/04/28,13:20,0.559,0.813,0.494,1.012,0.718,0.323,0.572,0.541,��쓌,13.9,��
2023/04/28,13:30,0.561,0.814,0.495,1.012,0.718,0.323,0.572,0.542,��쓌,14.4,��
2023/04/28,13:40,0.560,0.817,0.494,1.012,0.719,0.323,0.573,0.541,��쓌,12.7,��
2023/04/28,13:50,0.561,0.814,0.495,1.012,0.720,0.322,0.573,0.542,��쓌,13.3,��
2023/04/28,14:00,0.559,0.814,0.495,1.014,0.720,0.323,0.572,0.541,��쓌,12.0,��
2023/04/28,14:10,0.559,0.817,0.494,1.014,0.720,0.322,0.573,0.541,��쓌,12.7,��
2023/04/28,14:20,0.560,0.815,0.493,1.010,0.718,0.322,0.573,0.542,��쓌,12.5,��
2023/04/28,14:30,0.559,0.817,0.493,1.009,0.719,0.323,0.573,0.542,��쓌,12.0,��
2023/04/28,14:40,0.560,0.815,0.495,1.010,0.720,0.323,0.572,0.541,��쓌,10.6,��
2023/04/28,14:50,0.559,0.816,0.494,1.010,0.719,0.323,0.574,0.541,��쓌,14.1,��
2023/04/28,15:00,0.558,0.817,0.494,1.009,0.720,0.324,0.573,0.543,��쓌,15.3,��
2023/04/28,15:10,0.561,0.817,0.494,1.008,0.721,0.321,0.572,0.541,��쓌,15.2,��
2023/04/28,15:20,0.560,0.816,0.493,1.012,0.719,0.322,0.572,0.541,��쓌,14.4,��
2023/04/28,15:30,0.562,0.815,0.493,1.011,0.721,0.322,0.573,0.540,��,13.9,��
2023/04/28,15:40,0.561,0.814,0.494,1.012,0.719,0.321,0.571,0.542,��,12.8,��
2023/04/28,15:50,0.561,0.814,0.495,1.011,0.721,0.323,0.575,0.542,��,9.4,��
2023/04/28,16:00,0.559,0.816,0.495,1.010,0.722,0.323,0.574,0.540,��,8.2,��
2023/04/28,16:10,0.560,0.817,0.494,1.010,0.719,0.322,0.572,0.542,��,11.3,��
2023/04/28,16:20,0.559,0.817,0.494,1.011,0.721,0.322,0.573,0.543,��쓌,13.3,��
2023/04/28,16:30,0.558,0.817,0.495,1.009,0.718,0.323,0.573,0.541,��,11.8,��
2023/04/28,16:40,0.560,0.815,0.494,1.012,0.720,0.323,0.574,0.543,��,12.2,��
2023/04/28,16:50,0.559,0.817,0.495,1.012,0.720,0.322,0.572,0.542,��쓌,12.8,��
2023/04/28,17:00,0.558,0.817,0.494,1.010,0.722,0.322,0.574,0.540,��,11.0,��
2023/04/28,17:10,0.559,0.816,0.493,1.011,0.722,0.321,0.571,0.540,��,11.3,��
2023/04/28,17:20,0.560,0.818,0.493,1.012,0.720,0.321,0.573,0.542,��,8.2,��
2023/04/28,17:30,0.559,0.815,0.494,1.013,0.722,0.323,0.573,0.541,��,5.9,��
2023/04/28,17:40,0.560,0.817,0.494,1.013,0.721,0.322,0.572,0.541,��,5.9,��
2023/04/28,17:50,0.558,0.818,0.496,1.013,0.719,0.321,0.571,0.541,��,6.3,��
2023/04/28,18:00,0.561,0.818,0.494,1.015,0.719,0.324,0.573,0.544,��,7.1,��
2023/04/28,18:10,0.561,0.817,0.492,1.014,0.720,0.323,0.572,0.543,��,7.1,��
2023/04/28,18:20,0.559,0.817,0.493,1.014,0.720,0.323,0.571,0.545,��,6.0,��
2023/04/28,18:30,0.560,0.821,0.495,1.017,0.722,0.324,0.573,0.543,��,6.0,��
2023/04/28,18:40,0.561,0.821,0.494,1.016,0.719,0.324,0.574,0.544,��,6.7,��
2023/04/28,18:50,0.560,0.818,0.495,1.016,0.722,0.323,0.575,0.544,��,6.7,��
2023/04/28,19:00,0.561,0.819,0.496,1.014,0.721,0.323,0.575,0.545,��,6.4,��
2023/04/28,19:10,0.562,0.820,0.497,1.016,0.721,0.324,0.574,0.542,��,5.8,��
2023/04/28,19:20,0.561,0.820,0.498,1.017,0.722,0.325,0.575,0.545,��,4.1,��
2023/04/28,19:30,0.562,0.818,0.497,1.016,0.722,0.324,0.575,0.543,��,4.0,��
2023/04/28,19:40,0.561,0.819,0.496,1.017,0.721,0.324,0.574,0.544,��,4.6,��
2023/04/28,19:50,0.561,0.819,0.497,1.014,0.721,0.324,0.573,0.544,��,4.5,��
2023/04/28,20:00,0.562,0.820,0.496,1.014,0.724,0.324,0.573,0.542,��,3.5,��
2023/04/28,20:10,0.561,0.820,0.495,1.017,0.724,0.325,0.574,0.543,��쐼,2.6,��
2023/04/28,20:20,0.561,0.817,0.498,1.016,0.723,0.324,0.574,0.544,��쐼,2.0,��
2023/04/28,20:30,0.562,0.820,0.497,1.016,0.722,0.324,0.574,0.544,�쐼,1.5,��
2023/04/28,20:40,0.561,0.817,0.495,1.014,0.722,0.324,0.574,0.543,��쐼,2.0,��
2023/04/28,20:50,0.560,0.818,0.495,1.014,0.723,0.324,0.575,0.542,��쐼,2.5,��
2023/04/28,21:00,0.560,0.820,0.496,1.015,0.723,0.324,0.574,0.542,��쐼,3.0,��
2023/04/28,21:10,0.559,0.818,0.495,1.015,0.724,0.324,0.576,0.543,��쐼,2.8,��
2023/04/28,21:20,0.561,0.819,0.497,1.013,0.726,0.324,0.574,0.543,�쐼,2.0,��
2023/04/28,21:30,0.558,0.819,0.497,1.016,0.723,0.325,0.574,0.546,��,0.8,��
2023/04/28,21:40,0.560,0.820,0.495,1.015,0.722,0.325,0.575,0.543,��,1.2,��
2023/04/28,21:50,0.562,0.818,0.496,1.015,0.723,0.325,0.576,0.544,�쐼,2.0,��
2023/04/28,22:00,0.562,0.819,0.496,1.015,0.724,0.326,0.575,0.542,�쐼,3.4,��
2023/04/28,22:10,0.562,0.818,0.496,1.017,0.722,0.324,0.574,0.541,��쐼,3.1,��
2023/04/28,22:20,0.561,0.818,0.496,1.016,0.722,0.324,0.574,0.542,��,3.9,��
2023/04/28,22:30,0.561,0.820,0.495,1.013,0.725,0.325,0.573,0.544,��쐼,4.4,��
2023/04/28,22:40,0.562,0.818,0.495,1.016,0.724,0.326,0.573,0.542,��,5.1,��
2023/04/28,22:50,0.561,0.820,0.497,1.017,0.723,0.325,0.575,0.542,��쐼,3.6,��
2023/04/28,23:00,0.562,0.818,0.496,1.018,0.720,0.324,0.575,0.543,��,3.6,��
2023/04/28,23:10,0.562,0.819,0.497,1.014,0.723,0.324,0.575,0.542,��,4.1,��
2023/04/28,23:20,0.561,0.820,0.495,1.017,0.723,0.324,0.574,0.544,��,6.0,��
2023/04/28,23:30,0.561,0.820,0.495,1.017,0.724,0.325,0.573,0.542,��,5.5,��
2023/04/28,23:40,0.559,0.818,0.497,1.015,0.722,0.324,0.575,0.542,��쐼,3.5,��
2023/04/28,23:50,0.561,0.819,0.495,1.017,0.723,0.324,0.575,0.544,��,3.2,��
